Regional Weather Roundup
Issued by NWS

Home | Current Version | Previous Version | Text Only | Print | Product List | Glossary On
Versions: 1 2 3 4 5 6 7 8 9 10 11 12 13 14 15 16 17 18 19 20 21 22 23 24 25 26 27 28 29 30 31 32 33 34 35 36 37 38 39 40 41 42 43 44 45 46 47 48 49 50
000
ASUS46 KPQR 091510
RWROR

OREGON REGIONAL WEATHER ROUNDUP
NATIONAL WEATHER SERVICE PORTLAND OR
700 AM PST FRI DEC 09 2016

NOTE: "FAIR" INDICATES FEW OR NO CLOUDS BELOW 12,000 FEET WITH
NO SIGNIFICANT WEATHER AND/OR OBSTRUCTIONS TO VISIBILITY.

ORZ001>013-091600-
NORTHWEST OREGON


CITY           SKY/WX    TMP DP  RH WIND       PRES   REMARKS
ASTORIA        LGT RAIN  42  37  82 E7        29.95S
NEWPORT        CLOUDY    48  45  87 SW9       30.04S
PORTLAND       FRZ RAIN  32  28  85 SE15      30.07R WCI  22
VANCOUVER WA   CLOUDY    32  29  88 SE6       30.06S WCI  26
SCAPPOOSE      FRZ RAIN  31  29  92 S5        30.07S FOG     WCI  26
HILLSBORO      FRZ RAIN  32  30  92 CALM      30.05S FOG
AURORA         CLOUDY    34  33  96 E3        30.06S FOG
MCMINNVILLE    LGT RAIN  33  31  92 CALM      30.06S FOG
SALEM          CLOUDY    34  31  88 CALM      30.05R FOG
CORVALLIS        N/A     37  34  87 CALM      30.05S
EUGENE         CLOUDY    44  42  93 S8        30.05S
$$

ORZ021-028-091600-
SOUTHWEST OREGON


CITY           SKY/WX    TMP DP  RH WIND       PRES   REMARKS
NORTH BEND     CLOUDY    48  48 100 S6        30.07F
BROOKINGS      CLOUDY    50  50 100 S8        30.12R FOG
ROSEBURG       CLOUDY    48  47  96 CALM      30.07S FOG
SEXTON SUMMIT  FOG       39  39 100 SW9       30.02S VSB 1/4 WCI  33
MEDFORD        MOCLDY    42  42 100 SE6       30.06R
$$

ORZ014>016-041-091600-
COLUMBIA GORGE


CITY           SKY/WX    TMP DP  RH WIND       PRES   REMARKS
TROUTDALE      FRZ RAIN  31  27  85 E20G30    30.07F WCI  19
THE DALLES     CLOUDY    24  22  91 CALM      30.25S
$$

ORZ029>031-041-044-049-050-061>064-502-503-505>511-091600-
EASTERN OREGON


CITY           SKY/WX    TMP DP  RH WIND       PRES   REMARKS
REDMOND        CLOUDY    17  12  80 CALM      30.03R
BEND           MOCLDY    16  14  93 CALM      30.00S
PRINEVILLE     CLOUDY    18  16  93 CALM      30.01S
KLAMATH FALLS  CLOUDY    38  33  82 S10       30.03F WCI  31
LAKEVIEW       CLOUDY    37  34  87 SE10      30.09R WCI  30
HERMISTON      CLOUDY    24  20  84 CALM      30.22R
PENDLETON      CLOUDY    20  17  88 CALM      30.15R FOG
JOHN DAY       MIX PCPN  31  29  92 E6        30.01S WCI  25
MEACHAM        LGT SNOW  28  24  85 CALM      30.00R FOG
LA GRANDE      CLOUDY    28  18  64 S20G26    30.07S WCI  15
BAKER CITY     CLOUDY    21  18  88 CALM      30.11S
BURNS          CLOUDY    25  23  92 CALM      30.05R
ROME             N/A     26  21  81 NE5       30.04S WCI  20
ONTARIO        CLOUDY    25  23  92 W5        30.20S WCI  19
$$



USA.gov is the U.S. government's official web portal to all federal, state and local government web resources and services.